Location: El Frío
(10.0713°N, 67.9111°W)
Time: 18:03:10
(UTC+00:00)

Cosmos 1553 Rocket - Pass Details

Date: 11 December 2025
Orbit: 942 x 1006 km, 82.9° (Epoch: 20 January)

Event Time Altitude Azimuth Distance (km) Brightness Sun altitude
Rises 23:05:10 0° 191° (S) 3,598 7.5 -13.0°
Reaches altitude 10° 23:07:40 10° 194° (SSW) 2,657 6.8 -13.6°
Maximum altitude 23:13:38 61° 274° (W) 1,070 4.5 -15.0°
Drops below altitude 10° 23:19:41 10° 354° (N) 2,688 6.2 -16.4°
Sets 23:22:14 0° 357° (N) 3,643 6.8 -17.0°
